Culdrose, United Kingdom

8:38 PM GMT on December 03, 2016 (GMT +0000)
Culdrose Navy

Weather History for EGDR - November, 2013

Change the Weather History Date:

Wednesday, November 20, 2013

  Actual Average Record
Temperature  
Mean Temperature 44 °F -  
Max Temperature 50 °F 50 °F 57 °F (2011)
Min Temperature 39 °F 42 °F 35 °F (1999)
Degree Days  
Heating Degree Days 20    
Moisture  
Dew Point 39 °F    
Average Humidity 74    
Maximum Humidity 93    
Minimum Humidity 50    
Precipitation  
Precipitation 0.08 in - - ()
Sea Level Pressure  
Sea Level Pressure 29.85 in    
Wind  
Wind Speed 14 mph ()    
Max Wind Speed 31 mph    
Max Gust Speed 44 mph    
Visibility 6.6 miles    
Events Rain , Hail    
Averages and records for this station are not official NWS values.
T = Trace of Precipitation, MM = Missing Value Source: Averaged Metar Reports

Daily Weather History Graph

Daily Weather History Graph

Search for Another Location

Airport or City:

Trip Planner

Search our weather history database for the weather conditions in past years. The results will help you decide how hot, cold, wet, or windy it might be!

Date:

Astronomy

Nov. 20, 2013 Rise Set
Actual Time 7:42 AM GMT 4:30 PM GMT
Civil Twilight 7:05 AM GMT 5:06 PM GMT
Nautical Twilight 6:26 AM GMT 5:46 PM GMT
Astronomical Twilight 5:47 AM GMT 6:25 PM GMT
Moon 7:00 PM GMT (11/20) 9:58 AM GMT (11/20)
Length of Visible Light 10h 01m
Length of Day
8h 48m
Waning Gibbous, 92% of the Moon is Illuminated
Nov 20
Waning Gibbous
Nov 25
Last Quarter
Dec 3
New
Dec 9
First Quarter
Dec 17
Full

Hourly Weather History & Observations

Time (GMT) Temp. Windchill Dew Point Humidity Pressure Visibility Wind Dir Wind Speed Gust Speed Precip Events Conditions
12:00 AM 41 °F - 33 °F 64% 30.18 in 19 mi NNW 6.9 mph - -   Partly Cloudy
12:50 AM 41.0 °F 35.8 °F 33.8 °F 76% 30.12 in 6.2 mi NW 8.1 mph - N/A   Overcast
1:50 AM 42.8 °F 38.0 °F 37.4 °F 81% 30.09 in 6.2 mi WNW 8.1 mph - N/A   Overcast
2:50 AM 44.6 °F 38.8 °F 37.4 °F 76% 30.09 in 6.2 mi WNW 11.5 mph - N/A   Mostly Cloudy
3:00 AM 45 °F - 38 °F 67% 30.10 in 10 mi WNW 11.5 mph - -   Overcast
3:50 AM 46.4 °F 41.1 °F 41.0 °F 81% 30.06 in 3.1 mi WNW 11.5 mph 23.0 mph N/A Rain Light Rain
4:50 AM 46.4 °F 41.1 °F 42.8 °F 87% 30.04 in 6.2 mi West 11.5 mph - N/A   Mostly Cloudy
5:50 AM 46.4 °F 40.4 °F 41.0 °F 81% 30.01 in 6.2 mi West 13.8 mph 25.3 mph N/A   Scattered Clouds
6:00 AM 47 °F - 41 °F 74% 30.02 in 10 mi West 13.8 mph - -   Mostly Cloudy
6:50 AM 46.4 °F 39.8 °F 41.0 °F 81% 29.95 in 3.1 mi WNW 16.1 mph - N/A Rain Light Rain Showers
7:50 AM 46.4 °F 39.5 °F 42.8 °F 87% 29.92 in 6.2 mi WNW 17.3 mph 32.2 mph N/A   Mostly Cloudy
8:50 AM 48.2 °F - 44.6 °F 87% 29.89 in 6.2 mi WNW 19.6 mph 32.2 mph N/A   Mostly Cloudy
9:00 AM 47 °F - 44 °F 86% 29.90 in 9 mi WNW 19.6 mph - - Rain Light Rain Showers
9:50 AM 48.2 °F - 44.6 °F 87% 29.83 in 6.2 mi WNW 20.7 mph 33.4 mph N/A   Haze
10:50 AM 50.0 °F - 42.8 °F 76% 29.80 in 6.2 mi WNW 23.0 mph 40.3 mph N/A   Haze
11:50 AM 50.0 °F - 42.8 °F 76% 29.77 in 3.7 mi WNW 31.1 mph 43.7 mph N/A Rain Light Rain Showers
12:00 PM 50 °F - 44 °F 71% 29.78 in 4 mi WNW 31.1 mph - - Rain Light Rain Showers
12:50 PM 48.2 °F - 46.4 °F 93% 29.74 in 5.0 mi WNW 25.3 mph 41.4 mph N/A Rain Light Rain Showers
1:50 PM 46.4 °F 39.0 °F 42.8 °F 87% 29.71 in 3.7 mi NNW 19.6 mph 36.8 mph N/A   Mostly Cloudy
2:50 PM 48.2 °F - 39.2 °F 71% 29.71 in 6.2 mi NNW 18.4 mph 33.4 mph N/A   Haze
3:00 PM 47 °F - 39 °F 65% 29.72 in 7 mi NNW 18.4 mph - - Rain Light Rain Showers
3:50 PM 46.4 °F 38.7 °F 33.8 °F 62% 29.71 in 6.2 mi North 20.7 mph 34.5 mph N/A   Haze
4:50 PM 46.4 °F 39.8 °F 35.6 °F 66% 29.71 in 6.2 mi NNW 16.1 mph 33.4 mph N/A Rain Light Rain Showers
5:50 PM 46.4 °F 38.5 °F 33.8 °F 62% 29.71 in 6.2 mi NNW 21.9 mph 41.4 mph N/A Rain Light Rain Showers
6:00 PM 46 °F - 34 °F 53% 29.73 in 7 mi NNW 21.9 mph - - Rain Light Rain Showers
6:50 PM 44.6 °F 36.4 °F 37.4 °F 76% 29.71 in 6.2 mi North 20.7 mph 34.5 mph N/A Hail Light Hail Showers
7:50 PM 44.6 °F 36.4 °F 37.4 °F 76% 29.71 in 6.2 mi North 20.7 mph 39.1 mph N/A Rain Light Rain Showers
8:50 PM 44.6 °F 35.9 °F 32.0 °F 61% 29.71 in 6.2 mi North 23.0 mph 41.4 mph N/A   Scattered Clouds
9:00 PM 45 °F - 33 °F 50% 29.72 in 10 mi North 23.0 mph - - Rain Light Rain Showers
9:50 PM 44.6 °F 36.1 °F 35.6 °F 71% 29.71 in 6.2 mi North 21.9 mph 40.3 mph N/A   Scattered Clouds
10:50 PM 44.6 °F 35.7 °F 35.6 °F 71% 29.71 in 6.2 mi North 24.2 mph 36.8 mph N/A   Mostly Cloudy
11:50 PM 44.6 °F 36.1 °F 35.6 °F 71% 29.71 in 6.2 mi North 21.9 mph 40.3 mph N/A   Scattered Clouds